Regional Weather Roundup
Issued by NWS Wakefield, VA

Home | Current Version | Previous Version | Text Only | Print | Product List | Glossary On
Versions: 1 2 3 4 5 6 7 8 9 10 11 12 13 14 15 16 17 18 19 20 21 22 23 24 25 26 27 28 29 30 31 32 33 34 35 36 37 38 39 40 41 42 43 44 45 46 47 48 49 50
000
ASUS41 KAKQ 302010
RWRAKQ

REGIONAL WEATHER ROUNDUP
NATIONAL WEATHER SERVICE WAKEFIELD VA
300 PM EST FRI JAN 30 2015

Note: "fair" indicates few or no clouds below 12,000 feet with no
significant weather and/or obstructions to visibility. * = Denotes
station may not report precipitation (e.g., rain,snow,etc.),
thunder or fog.

VAZ042-051-052>054-056-302100-
NORTHERN VIRGINIA

CITY           SKY/WX    TMP DP  RH WIND       PRES   REMARKS
WASH NATIONAL  PTSUNNY   40  13  33 NW22G38   30.07R
DULLES         PTSUNNY   33  14  45 NW28G37   30.09R WCI  20
FORT BELVOIR   PTSUNNY   37  14  38 NW17G33   30.08R
QUANTICO       PTSUNNY   39  12  33 N23G30    30.10R
FREDERICKSBRG* PTSUNNY   40  12  32 NW16G36   30.09R
STAFFORD*      PTSUNNY   39  10  31 NW22G32   30.13R
WARRENTON      MOSUNNY   38  20  47 NW26G37   30.10R
CULPEPER*      PTSUNNY   37  10  32 NW14G25   30.11R
MANASSAS*      NOT AVBL
LEESBURG*      CLOUDY    34  19  55 NW21G29   30.10R WCI  22
WINCHESTER     MOSUNNY   32  12  43 NW24G33   30.12R WCI  19
FRONT ROYAL*   MOCLDY    32  12  43 W10G18    30.12R WCI  24
LURAY*         CLOUDY    34  14  44 NW14G20   30.13R WCI  24
$$

VAZ048-049-060>072-079>083-302100-
CENTRAL AND SOUTH CENTRAL VIRGINIA

CITY           SKY/WX    TMP DP  RH WIND       PRES   REMARKS
RICHMOND       PTSUNNY   44  17  33 N21G30    30.04R
CHESTERFIELD*  MOCLDY    45  12  26 NW14G24   30.05S
PETERSBURG*    PTSUNNY   45  16  30 NW10G17   30.05R
HANOVER        PTSUNNY   40  15  36 NW23G30   30.08R
TAPPAHANNOCK*  CLOUDY    42  13  31 NW15G23   30.05R
QUINTON*       CLOUDY    43  17  35 N10G24    30.04R
CHARLOTTSVILLE PTSUNNY   37   8  30 NW17G31   30.11R
GORDONSVILLE*  MOCLDY    37  11  34 NW8G17    30.11R
ORANGE*        MOSUNNY   37  12  35 NW16G30   30.13R
LOUISA*        PTSUNNY   39  14  35 NW16G25   30.08R
BUMPASS*       CLOUDY    38  13  36 NW14G28   30.08R
FARMVILLE*     PTSUNNY   46  11  24 W9G21     30.07R
CREWE*         CLOUDY    44  10  25 W17G26    30.05R
FORT PICKETT*  CLOUDY    44  16  32 NW14G22   30.04R
CHASE CITY*    MOCLDY    44  20  39 W13G24    30.08R
CLARKSVILLE*   MOCLDY    43  18  36 W12G29    30.08R
SOUTH HILL*    MOSUNNY   44  15  31 NW7G17    30.10R
LAWRENCEVILLE* CLOUDY    47  15  28 W10G22    30.03R
EMPORIA*       MOSUNNY   45  19  36 W14G22    30.05S
$$

VAZ088>098-302100-
SOUTHEAST VIRGINIA

CITY           SKY/WX    TMP DP  RH WIND       PRES   REMARKS
NORFOLK        CLOUDY    39  28  64 N14G23    30.02R
VIRGINIA BEACH CLOUDY    41  29  62 NW20      30.01R
NORFOLK NAVAL  PTSUNNY   43  27  53 N15       30.03R
WEST POINT*    PTSUNNY   45  13  27 NW9G20    30.05R
SALUDA*        MOCLDY    40  20  44 NW13G28   30.01R
NEWPORT NEWS   CLOUDY    43  24  47 N15G24    30.02R
LANGLEY AFB    CLOUDY    40  26  57 NW13G20   30.02R
FORT EUSTIS    MOSUNNY   43  27  52 N13G18    30.01R
WILLIAMSBURG*    N/A     46  23  39 NW14G23   30.03R
HR EXEC AP*    CLOUDY    41  25  52 NW6       30.04S
FRANKLIN*      CLOUDY    43  22  43 NW13G18   30.03S
WAKEFIELD      PTSUNNY   46  21  37 N12G21    30.03R
$$

VAZ020-022-025-037-045-302100-
WEST CENTRAL AND SOUTHWEST VIRGINIA

CITY           SKY/WX    TMP DP  RH WIND       PRES   REMARKS
STAUNTON*      CLOUDY    34  10  36 NW16G24   30.14R WCI  24
WAYNESBORO*    FAIR      31  10  40 W15G28    30.10R WCI  21
HOT SPRINGS VA CLOUDY    20   9  62 NW21G30   29.97R WCI   4
LYNCHBURG      SUNNY     38  10  31 W13G23    30.12R
DANVILLE       MOSUNNY   44  13  28 NW21G31   30.12S
SOUTH BOSTON*  FAIR      43  10  25 NW22G29   30.11R
MARTINSVILLE   SUNNY     41  13  32 NW23G35   30.16R
ROANOKE        FAIR      36   9  32 NW23G43   30.18R WCI  24
BLACKSBURG     PTSUNNY   29  12  50 W17G29    30.16R WCI  17
DUBLIN*        SUNNY     32  13  46 NW26G37   30.16R WCI  18
MARION*        CLOUDY    30  15  53 W24G43    30.19R WCI  16
HILLSVILLE*    PTSUNNY   29  15  55 NW24G33   30.10R WCI  15
RICHLANDS*     CLOUDY    27  14  59 W15G26    30.23R WCI  15
WISE*          PTSUNNY   32  16  51 W13G18    30.26R WCI  22
ABINGDON*      CLOUDY    34  18  51 NW15      30.26S WCI  24
$$

MDZ021>025-VAZ099-100-302100-
SOUTHERN MARYLAND AND THE DELMARVA PENINSULA

CITY           SKY/WX    TMP DP  RH WIND       PRES   REMARKS
PATUXENT RIVER MOSUNNY   40  12  32 NW21G35   30.01R
BAY BRIDGE APT   N/A     37  19  48 NW20G26   30.02R
LEONARDTOWN    MOSUNNY   39  10  30 W13G26    30.04R
DOVER          PTSUNNY   41  23  50 W20G36    29.94R
GEORGETOWN     LGT SNOW  37  26  64 NW10G25   29.95R
EASTON         PTSUNNY   41  25  52 NW18G35   30.03R
CAMBRIDGE      MOSUNNY   41  21  45 NW20G33   29.99R
SALISBURY      CLOUDY    41  21  44 W18G29    29.96R
OCEAN CITY     CLOUDY    39  23  52 N17G32    29.94R
WALLOPS ISLAND MOSUNNY   41  21  44 NW18G32   29.96R
ACCOMACK*      PTSUNNY   41  23  48 NW21G32   29.99S
$$

NCZ012>017-030>032-302100-
NORTH CENTRAL AND EASTERN NORTH CAROLINA

CITY           SKY/WX    TMP DP  RH WIND       PRES   REMARKS
ROANOKE RAPIDS CLOUDY    46  18  31 W12G23    30.05R
RALEIGH        MOSUNNY   47  15  27 VRB7G21   30.10R
ELIZABETH CITY CLOUDY    43  27  53 NW14      30.02R
AHOSKIE*       MOSUNNY   45  18  33 NW6       30.04S
EDENTON*       CLOUDY    45  30  57 NW7       30.02S
CURRITUCK*     CLOUDY    44  22  41 NW10G18   30.01R
KILL DEVIL HLS CLOUDY    43  26  51 NW9       29.99R
MANTEO         CLOUDY    43  27  52 NW10G16   30.00S
CAPE HATTERAS  CLOUDY    43  28  55 N8G18     30.01R
TARBORO*       CLOUDY    50  18  28 NW15G25   30.06S
GOLDSBORO      PTSUNNY   46  23  39 NW15G22   30.05F
WASHINGTON     PTSUNNY   46  21  37 NW8G17    30.05R
GREENVILLE     MOSUNNY   46  19  34 NW16G28   30.07R
NEW BERN       CLOUDY    49  21  33 NW16G29   30.05S
WILMINGTON     MOSUNNY   53  26  35 NW21G29   30.06R
$$

VAZ048-302100-
ELSEWHERE

CITY           SKY/WX    TMP DP  RH WIND       PRES   REMARKS
HARRISBURG PA  MOSUNNY   30  17  58 NW21G31   30.02R WCI  17
BALTIMORE      MOSUNNY   35  14  42 NW21G32   30.03R WCI  24
ANNAPOLIS      MOSUNNY   36  18  48 NW18G30   30.03R
ANDREWS AFB    PTSUNNY   37  14  39 NW26G38   30.04R WCI  25
PHILADELPHIA   PTSUNNY   40  16  37 NW21G33   29.93R
HENDERSON NC   PTSUNNY   45  12  26 NW13G28   30.08R
GREENSBORO     MOSUNNY   44  13  28 NW22G35   30.12R
ROCKY MOUNT    MOSUNNY   48  15  26 NW20G31   30.07R
$$

VAZ100-302100-
MARINE

STATION/POSITION TIME  TEMP    WIND        PRES    WAVE   SWELL
                       AIR SEA DIR/SP/G            HT/PER HT/PER
                 (UTC) (F)     (DEG/KT/KT) (MB)    (FT/S) (FT/S)
BRANDYWINE LGT   2000   38 37  330/ 15/ 21 1013.2R
CAPE MAY NJ      2000   38 38              1012.5R
LEWES DE         2000   39 36  330/ 19/ 24 1013.1R
15NM E FENWICK I 2000   39 40              1012.2R   5/ 5
OCEAN-CITY-INLET 2000   38 38  340/ 20/ 25 1013.2R
WACHAPREAGUE VA  2000   42 38  270/  5/ 12 1015.1R
THOMAS POINT MD  2000   36 37  310/ 26/ 30 1017.2R
GOOSES REEF MD   2000   38     VRB 21/ 25  1015.1R
COVE POINT MD    2000   37     320/ 22/ 30 1015.8R
SOLOMONS ISLAND  2000      37                N/A
BISHOPS HEAD MD  2000   39 37  310/ 22/ 25   N/A
PINEY POINT MD   2000          330/ 29/ 33   N/A
POTOMAC MD       2000   39     320/ 25/ 31 1015.7R
CAMBRIDGE MD     2000   37 35  300/ 21/ 29 1015.7R
LEWISETTA VA     2000   39 37  330/ 20/ 30 1016.7R
RAPPAHANNOCK LGT 2000          320/ 22/ 25 1016.2R
STINGRAY PT      2000   40     340/ 21/ 27 1016.5R
YORK RVR RNG VA  2000   40     340/ 17/ 20 1015.6F
YORKTOWN VA      2000   40 39  320/ 12/ 18 1016.2S
JAMESTOWN VA     2000   40     350/ 17/ 25   N/A
DOMINION TERM VA 2000   41     320/ 15/ 19 1016.0F
KIPTOPEKE VA     2000      44  340/ 18/ 23   N/A
CHES BAY BRIDGE  2000   38 40  330/ 20/ 23 1016.0R
CAPE HENRY VA    2000   38     330/ 24/ 27 1014.9R
CHESAPEAKE LGHT  1900   41     330/ 27/ 30 1015.4R
WILLOUBY STN VA  2000   39     360/ 16/ 19 1016.7S
S CRANEY ISL VA  2000          330/ 10/ 15 1016.1F
CAPE HENRY BUOY  2000      42                N/A     5/ 4
1ST LANDING BUOY 2000   39     340/ 19/ 25 1015.8R
CAPE CHARLES BUO 2000      41                N/A     4/ 4   2/10
OFFSHORE WE BUOY 2000      43                N/A     5/ 5   2/11
64NM E OF VA BCH 2000   43 49  330/ 27/ 33 1013.3R   8/ 6   2/10
DUCK PIER NC     2000   42 44  360/ 20/ 24 1014.6S
44100 DUCK FRF   2000      45                N/A     5/ 5
44056 DUCK FRF   2000      43                N/A     4/ 5
OREGON INLET NC  2000   42 42  320/ 12/ 17 1015.7R
HATTERAS NC      2000   43 46  350/ 18/ 21 1016.5R



USA.gov is the U.S. government's official web portal to all federal, state and local government web resources and services.